Grand Forks, ND

2:20 AM CDT on March 26, 2017 (GMT -0500)
Grand Forks International

Weather History for KGFK - October, 2011

Change the Weather History Date:

Thursday, October 6, 2011

  Actual Average Record
Temperature  
Mean Temperature 72 °F 48 °F  
Max Temperature 82 °F 60 °F 85 °F (1961)
Min Temperature 61 °F 36 °F 19 °F (1954)
Degree Days  
Heating Degree Days 0 17  
Month to date heating degree days 6 97  
Since 1 July heating degree days 224 448  
Cooling Degree Days 7 0  
Month to date cooling degree days 20 0  
Year to date cooling degree days 533 378  
Growing Degree Days 22 (Base 50)    
Moisture  
Dew Point 44 °F    
Average Humidity 39    
Maximum Humidity 51    
Minimum Humidity 26    
Precipitation  
Precipitation 0.00 in 0.08 in 1.69 in (1982)
Month to date precipitation T 0.44  
Year to date precipitation 18.65 17.72  
Snow  
Snow 0.00 in 0.00 in 0.90 in (1974)
Month to date snowfall 0.0 0.1  
Since 1 July snowfall 0.0 0.1  
Since 1 September snowfall 0.0 0.1  
Snow Depth 0.00 in    
Sea Level Pressure  
Sea Level Pressure 29.78 in    
Wind  
Wind Speed 21 mph (SSE)    
Max Wind Speed 38 mph    
Max Gust Speed 46 mph    
Visibility 10 miles    
Events      
T = Trace of Precipitation, MM = Missing Value Source: NWS Daily Summary

Daily Weather History Graph

Daily Weather History Graph

Search for Another Location

Airport or City:

Trip Planner

Search our weather history database for the weather conditions in past years. The results will help you decide how hot, cold, wet, or windy it might be!

Date:

Astronomy

Oct. 06, 2011 Rise Set
Actual Time 7:34 AM CDT 6:58 PM CDT
Civil Twilight 7:03 AM CDT 7:29 PM CDT
Nautical Twilight 6:27 AM CDT 8:05 PM CDT
Astronomical Twilight 5:51 AM CDT 8:41 PM CDT
Moon 4:31 PM CDT (10/6) 2:02 AM CDT (10/6)
Length of Visible Light 12h 25m
Length of Day
11h 23m
Waxing Gibbous, 75% of the Moon is Illuminated
Oct 6
Waxing Gibbous
Oct 11
Full
Oct 19
Last Quarter
Oct 26
New
Nov 2
First Quarter

Hourly Weather History & Observations

Time (CDT) Temp. Dew Point Humidity Pressure Visibility Wind Dir Wind Speed Gust Speed Precip Events Conditions
12:53 AM 68.0 °F 45.0 °F 43% 29.82 in 10.0 mi SSE 16.1 mph - N/A   Clear
1:53 AM 66.0 °F 44.1 °F 45% 29.83 in 10.0 mi SSE 16.1 mph - N/A   Clear
2:53 AM 64.9 °F 43.0 °F 45% 29.83 in 10.0 mi SSE 17.3 mph - N/A   Clear
3:53 AM 63.0 °F 43.0 °F 48% 29.83 in 10.0 mi SSE 15.0 mph - N/A   Clear
4:53 AM 63.0 °F 42.1 °F 46% 29.82 in 10.0 mi SE 13.8 mph - N/A   Clear
5:53 AM 62.1 °F 42.1 °F 48% 29.82 in 10.0 mi SE 15.0 mph - N/A   Clear
6:53 AM 62.6 °F 42.8 °F 48% 29.83 in 10.0 mi SSE 12.7 mph - N/A   Clear
7:53 AM 61.0 °F 42.1 °F 50% 29.83 in 10.0 mi SSE 13.8 mph - N/A   Clear
8:53 AM 64.0 °F 43.0 °F 46% 29.84 in 10.0 mi SSE 17.3 mph 26.5 mph N/A   Partly Cloudy
9:53 AM 68.0 °F 44.1 °F 42% 29.83 in 10.0 mi SSE 21.9 mph 28.8 mph N/A   Partly Cloudy
10:53 AM 73.0 °F 46.0 °F 38% 29.82 in 10.0 mi SSE 23.0 mph 28.8 mph N/A   Partly Cloudy
11:53 AM 77.0 °F 48.0 °F 36% 29.81 in 10.0 mi SSE 25.3 mph 32.2 mph N/A   Partly Cloudy
12:53 PM 80.1 °F 46.0 °F 30% 29.79 in 10.0 mi South 26.5 mph 41.4 mph N/A   Partly Cloudy
1:53 PM 81.0 °F 45.0 °F 28% 29.78 in 10.0 mi South 28.8 mph 38.0 mph N/A   Scattered Clouds
2:53 PM 82.0 °F 44.1 °F 26% 29.77 in 10.0 mi South 27.6 mph 46.0 mph N/A   Mostly Cloudy
3:53 PM 82.0 °F 44.1 °F 26% 29.75 in 10.0 mi SSE 29.9 mph 44.9 mph N/A   Mostly Cloudy
4:53 PM 80.1 °F 44.1 °F 28% 29.74 in 10.0 mi SSE 31.1 mph 46.0 mph N/A   Mostly Cloudy
5:53 PM 79.0 °F 45.0 °F 30% 29.73 in 10.0 mi SE 26.5 mph 35.7 mph N/A   Mostly Cloudy
6:53 PM 77.0 °F 44.6 °F 32% 29.72 in 10.0 mi SE 21.9 mph 33.4 mph N/A   Mostly Cloudy
7:53 PM 75.9 °F 43.0 °F 31% 29.73 in 10.0 mi SE 20.7 mph 28.8 mph N/A   Overcast
8:53 PM 75.0 °F 43.0 °F 32% 29.73 in 10.0 mi SE 19.6 mph 27.6 mph N/A   Mostly Cloudy
9:53 PM 73.9 °F 42.1 °F 32% 29.72 in 10.0 mi SE 20.7 mph 27.6 mph N/A   Mostly Cloudy
10:53 PM 73.0 °F 41.0 °F 31% 29.71 in 10.0 mi SSE 20.7 mph 27.6 mph N/A   Mostly Cloudy
11:53 PM 73.9 °F 41.0 °F 30% 29.70 in 10.0 mi SSE 26.5 mph 34.5 mph N/A   Mostly Cloudy